Location: Castle Hill Houses
(40.8186°N, 73.8497°W)
Time: 19:33:10
(UTC+00:00)

Cosmos 1943 - Pass Details

Date: 26 January 2020
Orbit: 833 x 850 km, 71.0° (Epoch: 21 February)

Event Time Altitude Azimuth Distance (km) Brightness Sun altitude
Rises 00:42:14 0° 336° (NNW) 3,399 6.6 -29.9°
Reaches altitude 10° 00:44:41 10° 336° (NNW) 2,464 5.9 -30.4°
Enters shadow 00:48:17 41° 337° (NNW) 1,200 4.0 -31.0°
